CAPE
548 239 106 18 0 0 0 0 0 0 0 0 0 0 0 0 0 0 0 0 0 0 0 0 0 0 0 0 0 0 0 0 0 0 0 0 0 0 0 0 0 0 0
257 87 24 0 0 0 0 0 0 0 0 0 0 0 0 0 0 0 0 0 0 0 0 0 0 0 0 0 0 0 0 0 0 0 0 0 0 0 0 0 0 0 0
198 18 0 0 0 0 0 0 0 0 0 0 0 0 0 0 0 0 0 0 0 0 0 0 0 0 0 0 0 0 0 0 0 0 0 0 0 0 0 0 0 0 0
124 0 0 0 0 0 0 0 0 0 0 0 0 0 0 0 0 0 0 0 0 0 0 0 0 0 0 0 0 0 0 0 0 0 0 0 0 0 0 0 0 0 1
48 0 0 0 0 0 0 0 0 0 0 0 0 0 0 0 0 0 0 0 0 0 0 0 0 0 0 0 0 0 0 0 0 0 0 0 0 0 0 0 0 0 0
16 0 0 0 0 0 0 0 0 0 0 0 0 0 0 0 0 0 0 0 0 0 0 0 0 0 0 0 0 0 0 0 0 0 0 0 0 0 0 0 0 0 0
0 0 0 0 0 0 0 0 0 0 0 0 0 0 0 0 0 0 0 0 0 0 0 0 0 0 0 0 0 0 0 0 0 0 0 0 0 0 0 0 0 0 0
0 0 0 0 0 0 0 0 0 0 0 0 0 0 0 0 0 0 0 0 0 0 0 0 0 0 0 0 0 0 0 0 0 0 0 0 0 0 0 0 0 0 0
0 0 0 0 0 0 0 0 0 0 0 0 0 0 0 0 0 0 0 0 0 0 0 0 0 0 0 0 0 0 0 0 0 0 0 0 0 0 0 0 0 0 0
0 0 0 0 0 0 0 0 0 0 0 0 0 0 0 0 0 0 0 0 0 0 0 0 0 0 0 0 0 0 0 0 0 0 0 0 0 0 0 0 0 0 0
0 0 0 0 0 0 0 0 0 0 0 0 0 0 0 0 0 0 0 0 0 0 0 0 0 0 0 0 0 0 0 0 0 0 0 0 0 0 0 0 0 0 0
0 0 0 0 0 0 0 0 0 0 0 0 0 0 0 0 0 0 0 0 0 0 0 0 0 0 0 0 0 0 0 0 0 0 0 0 0 0 0 0 0 0 0
0 0 0 0 0 0 0 0 0 0 0 0 0 0 0 0 0 0 0 0 0 0 0 0 0 0 0 0 0 0 1 1 0 0 0 0 0 0 0 0 0 0 0
0 0 0 0 0 0 0 0 0 0 0 0 0 0 0 0 0 0 0 0 0 0 0 0 0 0 0 0 0 0 6 8 2 0 0 0 0 0 0 0 0 0 0
0 0 0 0 0 0 0 0 0 0 0 0 0 0 0 0 0 0 0 0 0 0 0 0 0 0 0 0 0 3 0 3 7 2 0 0 0 0 0 0 0 0 0
0 0 0 0 0 0 0 0 0 0 0 0 0 0 0 0 0 0 0 0 0 0 0 0 0 0 0 0 0 0 1 8 2 1 0 0 0 0 0 0 0 0 0
0 0 0 0 0 0 0 0 0 0 0 0 0 0 0 0 0 0 0 0 0 0 0 0 0 0 0 0 0 2 3 7 0 0 0 0 0 0 0 0 0 0 0
0 0 0 0 0 0 0 0 0 0 0 0 0 0 0 0 0 0 0 0 0 0 0 0 0 0 0 0 0 4 8 1 0 0 0 0 0 0 0 0 0 0 0
0 0 0 0 0 0 0 0 0 0 0 0 0 0 0 0 0 0 0 0 0 0 0 0 0 0 0 0 2 0 6 2 0 0 0 0 0 0 0 0 0 0 0
0 0 0 0 0 0 0 0 0 0 0 0 0 0 0 0 4 1 0 0 0 0 0 0 0 0 0 9 2 0 0 0 0 0 0 0 0 0 0 0 0 0 0
0 0 0 0 0 0 0 0 0 0 0 0 0 2 6 0 12 0 0 0 0 0 0 0 0 3 0 0 0 0 0 0 0 0 0 0 0 0 0 0 0 0 0
0 0 0 0 0 0 0 0 0 0 0 0 0 0 0 0 0 0 0 0 0 0 0 0 0 0 0 0 0 0 0 0 0 0 0 0 0 0 0 0 0 0 0
0 0 0 0 0 0 0 0 0 0 0 0 1 0 0 0 0 0 0 0 0 0 0 0 0 0 0 0 0 0 0 0 0 0 0 0 0 0 0 0 0 0 0
0 0 0 0 0 0 0 0 0 0 3 0 0 0 0 0 0 0 0 0 0 0 0 0 0 0 0 0 0 0 0 0 0 0 0 0 0 0 0 0 0 0 0
0 0 0 0 0 0 0 0 3 2 0 0 0 0 0 0 0 0 0 0 0 0 0 0 0 0 0 0 0 0 0 0 0 0 0 0 0 0 0 0 0 0 0
0 0 0 0 0 0 1 5 3 0 0 0 0 0 0 0 0 0 0 0 0 0 0 0 0 0 0 0 0 0 0 0 0 0 0 0 0 0 0 0 0 0 0
CIN
-250 -326 -369 -466 0 0 0 0 0 0 0 0 0 0 0 0 0 0 0 0 0 0 0 0 0 0 0 0 0 0 0 0 -1 0 0 0 0 0 0 0 0 0 0
-360 -421 -509 0 0 0 0 0 0 0 0 0 0 0 0 0 0 0 0 0 0 0 0 0 0 0 0 0 0 0 0 0 0 0 0 0 0 0 0 0 0 0 0
-427 -476 0 0 0 0 0 0 0 0 0 0 0 0 0 0 0 0 0 0 0 0 0 0 0 0 0 0 0 0 0 0 0 0 0 0 0 0 0 0 0 0 -11
-544 0 0 0 0 0 0 0 0 0 0 0 0 0 0 0 0 0 0 0 0 0 0 0 0 0 0 0 0 0 0 0 0 0 0 0 0 0 0 0 0 0 0
-602 0 0 0 0 0 0 0 0 0 0 0 0 0 0 0 0 0 0 0 0 0 0 0 0 0 0 0 0 0 0 0 0 0 0 0 0 0 0 0 0 0 0
-589 0 0 0 0 0 0 0 0 0 0 0 0 0 0 0 0 0 0 0 0 0 0 0 0 0 0 0 0 0 0 0 0 0 0 0 0 0 0 0 0 0 0
0 0 0 0 0 0 0 0 0 0 0 0 0 0 0 0 0 0 0 0 0 0 0 0 0 0 0 0 0 0 0 0 0 0 0 0 0 0 0 0 0 0 0
0 0 0 0 0 0 0 0 0 0 0 0 0 0 0 0 0 0 0 0 0 0 0 0 0 0 0 0 0 0 0 0 0 0 0 0 0 0 0 0 0 0 0
0 0 0 0 0 0 0 0 0 0 0 0 0 0 0 0 0 0 0 0 0 0 0 0 0 0 0 0 0 0 0 0 0 0 0 0 0 0 0 0 0 0 0
0 0 0 0 0 0 0 0 0 0 0 0 0 0 0 0 0 0 0 0 0 0 0 0 0 0 0 0 0 0 0 0 0 0 0 0 0 0 0 0 0 0 0
0 0 0 0 0 0 0 0 0 0 0 0 0 0 0 0 0 0 0 0 0 0 0 0 0 0 0 0 0 0 0 0 0 0 0 0 0 0 0 0 0 0 0
0 0 0 0 0 0 0 0 0 0 0 0 0 0 0 0 0 0 0 0 0 0 0 0 0 0 0 0 0 0 0 0 0 0 0 0 0 0 0 0 0 0 0
0 0 0 0 0 0 0 0 0 0 0 0 0 0 0 0 0 0 0 0 0 0 0 0 0 0 0 0 0 -6 -71 -68 0 0 0 0 0 0 0 0 0 0 0
0 0 0 0 0 0 0 0 0 0 0 0 0 0 0 0 0 0 -11 0 0 0 0 0 0 0 0 0 0 0 -76 -84 -87 0 0 0 0 0 0 0 0 0 0
0 0 0 0 0 0 0 0 0 0 0 0 0 0 0 0 0 0 0 0 0 0 0 0 0 0 0 0 0 -79 0 -118 -87 -111 0 0 0 0 0 0 0 0 0
0 0 0 0 0 0 0 0 0 0 0 0 0 0 0 0 0 0 0 0 0 0 0 0 0 0 0 0 0 0 -81 -70 -81 -44 0 0 0 0 0 0 0 0 0
0 0 0 0 0 0 0 0 0 0 0 0 0 0 0 0 0 0 0 0 0 0 0 0 0 0 0 0 0 -58 -53 -71 -3 0 0 0 0 0 0 0 0 0 0
0 0 0 0 0 0 0 0 0 0 0 0 0 0 0 0 0 0 0 0 0 0 0 0 0 0 0 0 0 -73 -64 -40 0 0 0 0 0 0 0 0 0 0 0
0 0 0 0 0 0 0 0 0 0 0 0 0 0 0 0 0 0 0 0 0 0 0 0 0 0 0 0 -29 0 -55 -37 0 0 0 0 0 0 0 0 0 0 0
0 0 0 0 0 0 0 0 0 0 0 0 0 0 -5 -107 -94 -33 0 0 0 0 0 0 0 0 0 -62 -32 0 0 0 0 0 0 0 0 0 0 0 0 0 0
0 0 0 0 0 0 0 0 0 0 0 0 -1 -91 -131 -4 -51 0 0 0 0 0 0 0 0 -74 0 0 0 0 0 0 0 0 0 0 0 0 0 0 0 0 0
0 0 0 0 0 0 0 0 0 0 0 0 -6 -28 0 0 0 0 0 0 0 0 0 0 0 0 0 0 0 0 0 0 0 0 0 0 0 0 0 0 0 0 0
0 0 0 0 0 0 0 0 0 0 0 0 -47 0 0 0 -30 0 0 0 0 0 0 0 0 0 0 0 0 0 0 0 0 0 0 0 0 0 0 0 0 0 0
0 0 0 0 0 0 0 0 0 0 -96 -11 0 0 0 0 0 0 0 0 0 0 0 0 0 0 0 0 0 0 0 0 0 0 0 0 0 0 0 0 0 0 0
0 0 0 0 0 0 0 0 -87 -47 0 0 0 0 0 0 0 0 0 0 0 0 0 0 0 0 0 0 0 0 0 0 0 0 0 0 0 0 0 0 0 0 0
0 0 0 0 0 0 -43 -57 -59 0 0 0 0 0 0 0 0 0 0 0 0 0 0 0 0 0 0 0 0 0 0 0 0 0 0 0 0 0 0 0 0 0 0
Wind_Speed
8 8 8 8 8 9 9 10 10 12 13 15 17 17 18 18 18 18 18 18 20 22 23 23 23 23 22 22 21 21 21 20 19 20 21 24 25 27 28 27 26 26 25
6 8 9 9 9 9 8 9 10 12 14 16 16 15 15 16 17 17 18 19 20 22 22 22 22 23 23 22 21 22 22 21 20 21 22 23 24 27 26 27 27 26 25
7 7 8 9 9 9 9 9 11 12 14 15 14 14 14 15 17 18 17 18 20 21 22 23 23 23 23 23 22 22 23 22 21 21 22 22 23 27 27 26 27 26 23
7 7 7 8 8 9 9 10 11 12 13 13 13 13 14 14 16 17 18 19 20 21 21 22 22 23 23 23 23 23 22 23 23 23 22 23 25 26 25 27 27 25 23
7 6 6 6 7 8 9 10 11 12 12 12 12 13 13 14 14 16 17 18 19 20 20 21 22 22 23 22 22 23 23 22 23 23 23 24 25 26 27 27 27 26 20
4 5 6 7 7 7 8 10 10 11 11 12 12 12 13 13 13 13 14 16 18 19 19 20 21 22 23 23 22 22 22 23 22 22 23 24 25 26 26 27 28 25 23
2 3 5 6 6 6 8 9 9 10 11 11 11 11 12 13 14 11 11 13 15 17 18 19 20 21 22 23 22 21 22 22 21 21 24 24 24 25 26 27 27 26 23
5 3 5 7 5 6 7 7 8 9 10 11 11 11 12 14 14 15 10 11 12 14 17 18 19 21 22 22 22 20 21 22 23 22 23 24 23 24 24 24 25 26 24
9 9 9 7 4 4 5 6 7 7 8 9 10 10 12 13 14 16 15 12 11 13 14 17 18 19 20 21 20 20 21 22 22 22 23 24 24 24 24 24 25 27 26
14 13 9 7 3 4 4 5 6 7 7 8 9 9 10 12 13 15 15 15 15 14 15 16 16 16 18 20 17 18 19 21 21 24 26 28 26 24 25 24 22 25 25
10 10 7 5 2 3 4 4 5 6 7 7 7 6 7 9 10 10 12 14 14 16 16 16 15 16 18 19 15 14 17 19 19 22 25 27 28 27 25 25 21 22 24
10 9 7 6 2 3 4 4 4 5 6 7 7 6 7 8 7 7 6 9 12 14 15 16 16 16 18 21 15 12 14 15 18 20 23 27 28 28 27 24 21 21 21
8 6 6 4 3 3 2 3 3 4 6 6 6 6 7 10 8 6 6 5 8 11 13 14 16 17 18 18 17 17 14 15 18 19 21 24 25 25 24 22 22 24 26
8 4 2 2 1 1 1 2 2 3 3 5 6 7 10 12 11 10 7 6 6 8 13 15 17 18 18 18 18 16 14 13 14 16 17 21 22 23 23 24 25 28 30
6 3 2 1 1 1 2 2 1 2 3 5 7 8 10 11 10 10 8 7 7 9 14 17 18 18 20 20 18 16 16 13 10 13 16 20 20 22 23 25 26 29 31
4 2 2 1 2 2 5 5 4 5 3 3 5 8 11 10 11 11 10 8 9 11 16 16 17 17 20 21 19 17 17 14 13 12 15 18 20 20 23 25 26 27 29
3 2 1 2 3 3 3 4 4 5 2 2 4 6 8 11 11 10 11 13 12 12 15 16 17 18 20 20 18 16 17 17 17 14 15 18 19 20 23 26 27 27 28
1 1 2 2 1 1 2 2 5 6 7 10 9 11 12 12 11 10 13 14 16 15 17 18 18 18 20 19 18 17 17 18 17 15 16 17 18 20 23 25 25 25 26
2 3 3 3 2 2 3 4 4 6 10 12 15 17 16 16 16 15 13 13 13 14 17 19 17 18 18 18 17 17 18 18 16 15 15 16 18 21 23 24 25 25 24
2 2 2 3 4 6 6 6 8 9 10 10 13 13 16 16 18 18 16 14 14 16 18 19 18 17 17 16 17 18 18 17 15 14 15 17 18 20 22 24 25 26 25
1 3 3 4 3 3 4 6 7 5 7 11 13 14 15 17 16 14 19 17 16 17 18 18 17 17 16 16 17 17 16 15 14 16 17 17 17 19 21 23 25 25 25
1 2 3 4 4 4 4 6 6 6 8 11 15 17 17 15 15 16 20 19 19 19 19 17 16 16 16 16 17 16 15 14 15 16 16 15 16 19 21 24 26 26 26
3 2 4 5 5 4 4 6 6 7 8 11 18 18 19 17 16 18 21 21 21 20 17 16 17 17 17 18 17 15 14 13 14 15 15 15 17 20 23 26 27 27 26
2 3 4 6 5 4 4 4 6 8 12 20 22 19 17 16 18 19 20 21 20 18 17 16 17 18 20 20 19 16 14 14 15 14 13 15 18 21 24 25 25 26 26
4 3 4 6 8 8 9 9 10 10 11 14 18 20 20 18 17 18 19 20 19 18 17 17 19 20 20 19 19 17 15 12 12 12 14 16 19 22 23 23 25 26 26
3 3 4 8 8 9 11 11 11 11 12 17 20 20 18 18 19 20 19 18 16 15 14 16 18 19 20 19 19 17 14 11 10 12 15 18 20 22 22 23 24 25 26
Wind_Direction
99 91 84 62 55 48 40 35 32 26 16 10 8 5 3 6 13 19 21 19 13 11 10 10 9 7 4 1 359 354 347 343 338 335 335 330 326 318 312 311 313 312 313
78 78 71 66 71 58 46 41 33 24 11 7 12 17 16 19 21 20 20 18 15 13 15 17 13 11 6 3 358 353 351 349 347 340 337 334 331 325 323 315 312 312 311
91 83 74 75 78 73 60 46 33 23 15 14 22 27 23 23 22 22 26 26 24 22 21 19 17 13 9 4 360 356 353 352 351 348 341 343 339 331 325 321 315 314 317
111 101 82 75 76 74 54 44 38 28 24 26 33 36 33 28 25 27 29 29 28 25 23 21 18 14 9 4 1 357 357 353 351 348 346 344 340 338 336 327 319 317 313
121 107 80 68 60 52 47 40 30 28 31 37 42 37 32 31 32 32 31 31 29 28 24 21 19 16 12 9 9 5 2 359 356 351 349 348 345 342 338 335 329 321 323
110 102 86 81 71 52 45 38 35 33 37 41 43 42 35 31 32 38 39 36 32 28 27 23 19 16 11 6 5 6 4 2 359 356 354 349 345 345 341 338 335 333 326
329 104 100 93 83 54 40 39 44 45 43 44 46 45 38 32 27 40 45 35 32 29 27 23 20 13 8 2 2 7 6 6 5 2 352 350 346 343 340 335 335 335 332
280 160 136 126 94 60 46 49 47 46 41 40 42 42 35 27 29 27 39 35 31 29 25 21 13 7 5 1 3 8 6 5 3 2 358 353 351 348 346 341 337 332 333
169 177 162 146 105 68 62 63 54 48 43 47 47 46 38 33 32 28 30 32 32 23 20 15 10 8 6 5 9 6 2 2 1 0 358 355 352 350 349 345 336 333 329
156 162 160 149 115 83 70 57 43 50 43 45 39 35 30 25 24 23 29 29 21 20 14 12 14 13 6 3 9 7 3 1 358 354 351 346 343 344 345 343 343 338 336
151 152 159 148 110 76 65 51 48 38 31 31 28 32 19 14 16 25 27 24 21 18 15 14 13 8 1 356 1 3 359 360 359 355 352 349 345 339 338 340 346 342 338
149 157 154 144 111 91 98 59 31 15 9 10 8 10 7 6 10 14 26 22 22 18 17 15 12 6 360 356 355 359 358 359 356 354 349 348 346 343 334 337 344 344 346
152 163 156 142 124 114 98 72 46 12 0 15 21 13 0 352 351 357 4 12 14 14 12 9 4 359 355 353 356 354 357 353 353 349 348 349 349 346 344 344 343 339 336
155 187 215 145 69 52 33 42 33 19 18 8 1 354 352 353 0 6 9 11 12 8 1 359 356 354 353 351 346 345 344 344 345 349 350 349 346 345 345 342 338 332 330
160 205 187 325 17 24 336 330 326 339 6 2 359 358 353 353 359 360 6 7 6 357 351 350 349 348 345 346 346 342 342 342 342 345 346 347 346 343 342 342 340 335 331
177 219 157 11 356 350 329 326 319 326 340 351 9 5 2 6 5 5 360 354 349 347 343 343 341 339 338 340 343 344 343 346 345 343 342 344 344 342 341 341 341 339 335
232 269 344 15 343 350 1 335 320 342 5 352 351 352 349 342 344 344 342 340 339 340 338 335 335 334 334 336 339 340 339 340 341 341 340 341 341 340 339 337 338 338 335
174 120 337 341 9 337 328 332 331 333 333 331 341 339 336 336 330 321 328 332 328 328 330 331 331 333 334 334 335 336 336 336 338 339 338 340 340 340 338 338 339 338 336
121 97 76 1 16 8 341 333 341 343 333 330 331 331 336 341 342 340 339 326 323 324 329 331 331 333 334 335 335 335 334 334 337 338 338 340 339 338 337 338 338 338 336
107 86 84 60 356 331 328 328 333 336 337 336 337 337 340 341 338 338 342 339 334 333 335 335 335 336 336 336 336 336 335 336 338 340 338 336 337 337 336 336 337 336 334
342 63 68 49 39 21 346 330 334 341 342 342 342 344 343 340 337 341 340 339 335 335 335 337 337 337 338 339 338 337 336 337 338 337 336 336 336 335 337 337 336 335 332
68 68 62 63 37 16 24 3 356 347 342 341 339 338 338 337 339 332 340 338 337 337 337 339 339 339 340 339 337 336 335 334 336 338 338 338 337 337 336 335 334 333 331
95 68 30 6 1 11 2 355 350 341 337 339 337 335 336 334 335 333 335 336 336 337 339 339 339 340 340 338 338 335 331 332 335 337 338 338 338 337 336 334 333 332 331
75 64 27 7 13 20 1 349 339 336 337 338 341 345 344 342 338 337 337 338 338 337 338 338 339 339 338 338 338 338 333 331 333 334 337 337 336 335 334 334 333 332 331
90 53 34 13 11 3 3 357 351 353 358 358 357 352 348 347 346 342 340 339 338 337 336 336 336 337 339 340 339 339 338 336 338 341 340 337 335 334 334 333 332 332 332
72 59 33 8 9 17 7 360 1 9 7 1 358 357 356 352 348 345 344 344 343 342 342 339 339 341 342 343 345 347 349 349 347 343 340 337 335 334 334 333 332 331 330